• en France
  • Liste des pays
  • À 7 jours
  • Température de l'eau
  • Carte satellitaire
  • Carte météo
  • Widgets météo
  • user-avatar
    Se connecter

    Météo par heure à Folkern

    Ce jour, 21 Janvier, Dimanche

    Heure Température Précipitation Vent Pression Humidité
    00:00 +2°C° 0 mm 3 m/s 755 mmHg 73%
    01:00 +1°C° 0 mm 4 m/s 755 mmHg 74%
    02:00 +1°C° 0 mm 5 m/s 755 mmHg 75%
    03:00 +1°C° 0 mm 6 m/s 755 mmHg 76%
    04:00 0°C° 0 mm 7 m/s 754 mmHg 75%
    05:00 0°C° 0 mm 8 m/s 754 mmHg 73%
    06:00 +1°C° 0 mm 9 m/s 753 mmHg 72%
    07:00 +1°C° 0 mm 10 m/s 752 mmHg 71%
    08:00 0°C° 0 mm 12 m/s 752 mmHg 70%
    09:00 0°C° 0 mm 13 m/s 751 mmHg 68%
    10:00 0°C° 0,2 mm 14 m/s 750 mmHg 70%
    11:00 0°C° 0,2 mm 15 m/s 749 mmHg 71%
    12:00 0°C° 0,2 mm 16 m/s 748 mmHg 72%
    13:00 0°C° 0,8 mm 16 m/s 746 mmHg 77%
    14:00 0°C° 0,8 mm 15 m/s 745 mmHg 81%
    15:00 0°C° 0,8 mm 15 m/s 744 mmHg 86%
    16:00 +1°C° 1,1 mm 14 m/s 744 mmHg 89%
    17:00 +3°C° 1,1 mm 13 m/s 743 mmHg 92%
    18:00 +4°C° 1,1 mm 11 m/s 743 mmHg 95%
    19:00 +4°C° 0,2 mm 11 m/s 744 mmHg 90%
    20:00 +6°C° 0,2 mm 11 m/s 744 mmHg 86%
    21:00 +5°C° 0,2 mm 12 m/s 745 mmHg 82%
    22:00 +5°C° 0,1 mm 12 m/s 745 mmHg 81%
    23:00 +4°C° 0,1 mm 12 m/s 746 mmHg 80%

    Demain, 22 Janvier, Lundi

    Heure Température Précipitation Vent Pression Humidité
    00:00 +4°C° 0,1 mm 12 m/s 746 mmHg 78%
    01:00 +4°C° 0,2 mm 12 m/s 747 mmHg 78%
    02:00 +4°C° 0,2 mm 13 m/s 747 mmHg 78%
    03:00 +4°C° 0,2 mm 13 m/s 747 mmHg 78%
    04:00 +4°C° 0,1 mm 13 m/s 748 mmHg 77%
    05:00 +4°C° 0,1 mm 13 m/s 748 mmHg 77%
    06:00 +5°C° 0,1 mm 12 m/s 748 mmHg 76%
    07:00 +5°C° 0,1 mm 13 m/s 749 mmHg 76%
    08:00 +4°C° 0,1 mm 13 m/s 749 mmHg 76%
    09:00 +4°C° 0,1 mm 13 m/s 750 mmHg 76%
    10:00 +4°C° 0,1 mm 12 m/s 750 mmHg 76%
    11:00 +5°C° 0,1 mm 12 m/s 751 mmHg 75%
    12:00 +6°C° 0,1 mm 11 m/s 751 mmHg 74%
    13:00 +6°C° 0,1 mm 10 m/s 751 mmHg 76%
    14:00 +6°C° 0,1 mm 10 m/s 751 mmHg 77%
    15:00 +6°C° 0,1 mm 9 m/s 751 mmHg 78%
    16:00 +6°C° 0 mm 10 m/s 751 mmHg 79%
    17:00 +6°C° 0 mm 11 m/s 751 mmHg 79%
    18:00 +6°C° 0 mm 11 m/s 751 mmHg 80%
    19:00 +5°C° 0 mm 12 m/s 751 mmHg 81%
    20:00 +5°C° 0 mm 14 m/s 750 mmHg 83%
    21:00 +5°C° 0 mm 15 m/s 750 mmHg 85%
    22:00 +5°C° 0,7 mm 15 m/s 749 mmHg 86%
    23:00 +5°C° 0,7 mm 16 m/s 748 mmHg 87%

    Après-demain, 23 Janvier, Mardi

    Heure Température Précipitation Vent Pression Humidité
    00:00 +5°C° 0,7 mm 16 m/s 748 mmHg 88%
    01:00 +5°C° 2 mm 16 m/s 747 mmHg 89%
    02:00 +5°C° 2 mm 16 m/s 747 mmHg 90%
    03:00 +5°C° 2 mm 15 m/s 746 mmHg 91%
    04:00 +5°C° 3,2 mm 14 m/s 746 mmHg 91%
    05:00 +5°C° 3,2 mm 13 m/s 745 mmHg 92%
    06:00 +6°C° 3,2 mm 11 m/s 744 mmHg 93%
    07:00 +6°C° 1 mm 11 m/s 744 mmHg 93%
    08:00 +6°C° 1 mm 10 m/s 744 mmHg 92%
    09:00 +6°C° 1 mm 10 m/s 744 mmHg 92%
    10:00 +7°C° 0,6 mm 11 m/s 743 mmHg 90%
    11:00 +7°C° 0,6 mm 12 m/s 743 mmHg 89%
    12:00 +7°C° 0,6 mm 13 m/s 743 mmHg 87%
    13:00 +7°C° 0,3 mm 13 m/s 743 mmHg 83%
    14:00 +5°C° 0,3 mm 13 m/s 743 mmHg 79%
    15:00 +5°C° 0,3 mm 13 m/s 743 mmHg 74%
    16:00 +5°C° 0,1 mm 13 m/s 743 mmHg 72%
    17:00 +4°C° 0,1 mm 13 m/s 743 mmHg 69%
    18:00 +4°C° 0,1 mm 13 m/s 743 mmHg 67%
    19:00 +4°C° 0,3 mm 13 m/s 743 mmHg 68%
    20:00 +4°C° 0,3 mm 13 m/s 743 mmHg 69%
    21:00 +4°C° 0,3 mm 13 m/s 743 mmHg 70%
    22:00 +4°C° 0,2 mm 12 m/s 742 mmHg 70%
    23:00 +4°C° 0,2 mm 11 m/s 742 mmHg 70%

    24 Janvier, Mercredi

    Heure Température Précipitation Vent Pression Humidité
    00:00 +5°C° 0,2 mm 10 m/s 741 mmHg 71%
    01:00 +5°C° 0,5 mm 9 m/s 740 mmHg 74%
    02:00 +4°C° 0,5 mm 7 m/s 738 mmHg 77%
    03:00 +4°C° 0,5 mm 6 m/s 737 mmHg 80%
    04:00 +4°C° 2,4 mm 7 m/s 736 mmHg 82%
    05:00 +2°C° 2,4 mm 8 m/s 736 mmHg 85%
    06:00 +2°C° 2,4 mm 9 m/s 735 mmHg 87%
    07:00 +2°C° 0,6 mm 9 m/s 736 mmHg 83%
    08:00 +3°C° 0,6 mm 9 m/s 736 mmHg 78%
    09:00 +3°C° 0,6 mm 9 m/s 737 mmHg 74%
    10:00 +3°C° 0,3 mm 10 m/s 737 mmHg 74%
    11:00 +4°C° 0,3 mm 11 m/s 738 mmHg 74%
    12:00 +4°C° 0,3 mm 11 m/s 738 mmHg 74%
    13:00 +4°C° 0,3 mm 12 m/s 738 mmHg 73%
    14:00 +4°C° 0,3 mm 12 m/s 738 mmHg 72%
    15:00 +4°C° 0,3 mm 13 m/s 737 mmHg 71%
    16:00 +4°C° 0,3 mm 12 m/s 738 mmHg 71%
    17:00 +4°C° 0,3 mm 12 m/s 738 mmHg 70%
    18:00 +4°C° 0,3 mm 12 m/s 738 mmHg 70%
    19:00 +4°C° 0,2 mm 12 m/s 738 mmHg 70%
    20:00 +4°C° 0,2 mm 12 m/s 738 mmHg 70%
    21:00 +4°C° 0,2 mm 12 m/s 738 mmHg 70%
    22:00 +3°C° 0,3 mm 12 m/s 738 mmHg 71%
    23:00 +3°C° 0,3 mm 12 m/s 738 mmHg 71%

    25 Janvier, Jeudi

    Heure Température Précipitation Vent Pression Humidité
    00:00 +3°C° 0,3 mm 12 m/s 737 mmHg 72%
    01:00 +3°C° 0,2 mm 10 m/s 737 mmHg 74%
    02:00 +3°C° 0,2 mm 9 m/s 737 mmHg 76%
    03:00 +4°C° 0,2 mm 8 m/s 737 mmHg 78%
    04:00 +4°C° 0,3 mm 7 m/s 737 mmHg 79%
    05:00 +4°C° 0,3 mm 6 m/s 738 mmHg 80%
    06:00 +4°C° 0,3 mm 6 m/s 738 mmHg 80%
    07:00 +4°C° 0,2 mm 6 m/s 739 mmHg 81%
    08:00 +3°C° 0,2 mm 6 m/s 740 mmHg 82%
    09:00 +3°C° 0,2 mm 5 m/s 741 mmHg 83%
    10:00 +4°C° 0,1 mm 6 m/s 742 mmHg 82%
    11:00 +4°C° 0,1 mm 7 m/s 743 mmHg 80%
    12:00 +4°C° 0,1 mm 8 m/s 744 mmHg 79%
    13:00 +5°C° 0 mm 8 m/s 745 mmHg 78%
    14:00 +5°C° 0 mm 9 m/s 746 mmHg 77%
    15:00 +5°C° 0 mm 10 m/s 747 mmHg 75%
    16:00 +5°C° 0,1 mm 10 m/s 749 mmHg 76%
    17:00 +4°C° 0,1 mm 11 m/s 751 mmHg 77%
    18:00 +4°C° 0,1 mm 12 m/s 752 mmHg 78%
    19:00 +3°C° 0,1 mm 12 m/s 754 mmHg 78%
    20:00 +3°C° 0,1 mm 13 m/s 756 mmHg 79%
    21:00 +1°C° 0,1 mm 14 m/s 757 mmHg 79%
    22:00 +1°C° 0,1 mm 13 m/s 759 mmHg 77%
    23:00 +2°C° 0,1 mm 12 m/s 760 mmHg 75%

    26 Janvier, Vendredi

    Heure Température Précipitation Vent Pression Humidité
    00:00 +1°C° 0,1 mm 11 m/s 761 mmHg 73%
    01:00 +1°C° 0,1 mm 10 m/s 762 mmHg 71%
    02:00 +1°C° 0,1 mm 10 m/s 763 mmHg 69%
    03:00 +1°C° 0,1 mm 9 m/s 764 mmHg 67%
    04:00 +1°C° 0,1 mm 8 m/s 765 mmHg 66%
    05:00 0°C° 0,1 mm 8 m/s 766 mmHg 65%
    06:00 0°C° 0,1 mm 7 m/s 767 mmHg 63%
    07:00 +1°C° 0 mm 6 m/s 767 mmHg 63%
    08:00 +1°C° 0 mm 6 m/s 768 mmHg 63%
    09:00 +1°C° 0 mm 5 m/s 769 mmHg 63%
    10:00 +1°C° 0 mm 4 m/s 769 mmHg 62%
    11:00 +3°C° 0 mm 3 m/s 769 mmHg 61%
    12:00 +4°C° 0 mm 2 m/s 770 mmHg 60%
    13:00 +4°C° 0 mm 2 m/s 770 mmHg 61%
    14:00 +3°C° 0 mm 3 m/s 770 mmHg 61%
    15:00 +3°C° 0 mm 3 m/s 770 mmHg 61%
    16:00 +3°C° 0 mm 4 m/s 770 mmHg 62%
    17:00 +2°C° 0 mm 5 m/s 770 mmHg 62%
    18:00 +2°C° 0 mm 6 m/s 770 mmHg 63%
    19:00 +2°C° 0 mm 7 m/s 770 mmHg 64%
    20:00 +2°C° 0 mm 8 m/s 770 mmHg 66%
    21:00 +2°C° 0 mm 10 m/s 770 mmHg 67%
    22:00 +3°C° 0,1 mm 11 m/s 769 mmHg 69%
    23:00 +3°C° 0,1 mm 12 m/s 769 mmHg 72%
    Voir plus